TimeCET,TemperatureF,Dew PointF,Humidity,Sea Level PressureIn,VisibilityMPH,Wind Direction,Wind SpeedMPH,Gust SpeedMPH,PrecipitationIn,Events,Conditions,WindDirDegrees,DateUTC
12:00 AM,53.6,51.8,94,30.15,6.2,NW,2.3,-,N/A,,Scattered Clouds,310,2012-11-23 23:00:00
12:30 AM,51.8,51.8,100,30.15,6.2,WNW,3.5,-,N/A,,Scattered Clouds,300,2012-11-23 23:30:00
1:00 AM,55,53,91,30.18,9,WNW,5.8,,,,Mostly Cloudy,300,2012-11-24 00:00:00
1:00 AM,53.6,51.8,94,30.15,6.2,WNW,5.8,-,N/A,,Scattered Clouds,300,2012-11-24 00:00:00
1:30 AM,53.6,53.6,100,30.15,6.2,WNW,4.6,-,N/A,,Mostly Cloudy,300,2012-11-24 00:30:00
2:00 AM,53.6,51.8,94,30.15,6.2,WNW,4.6,-,N/A,,Scattered Clouds,300,2012-11-24 01:00:00
2:30 AM,53.6,51.8,94,30.15,6.2,WNW,6.9,-,N/A,,Scattered Clouds,290,2012-11-24 01:30:00
3:00 AM,53.6,51.8,94,30.12,6.2,WNW,5.8,-,N/A,,Scattered Clouds,300,2012-11-24 02:00:00
3:30 AM,53.6,53.6,100,30.15,6.2,WNW,8.1,-,N/A,,Scattered Clouds,290,2012-11-24 02:30:00
4:00 AM,55.4,53.6,94,30.12,6.2,West,6.9,-,N/A,,Scattered Clouds,280,2012-11-24 03:00:00
4:30 AM,55.4,53.6,94,30.12,6.2,WNW,6.9,-,N/A,,Mostly Cloudy,290,2012-11-24 03:30:00
5:00 AM,55.4,53.6,94,30.12,6.2,NW,3.5,-,N/A,,Mostly Cloudy,310,2012-11-24 04:00:00
5:30 AM,55.4,53.6,94,30.12,6.2,WNW,5.8,-,N/A,,Mostly Cloudy,300,2012-11-24 04:30:00
6:00 AM,55.4,53.6,94,30.12,6.2,WNW,4.6,-,N/A,,Mostly Cloudy,300,2012-11-24 05:00:00
6:30 AM,55.4,53.6,94,30.12,6.2,WNW,5.8,-,N/A,,Mostly Cloudy,290,2012-11-24 05:30:00
7:00 AM,54,51,85,30.14,9,WNW,3.5,,,,Mostly Cloudy,290,2012-11-24 06:00:00
7:00 AM,55.4,53.6,94,30.12,6.2,WNW,3.5,-,N/A,,Mostly Cloudy,290,2012-11-24 06:00:00
7:30 AM,55.4,53.6,94,30.12,6.2,WNW,4.6,-,N/A,,Mostly Cloudy,290,2012-11-24 06:30:00
8:00 AM,55.4,53.6,94,30.12,6.2,WNW,3.5,-,N/A,,Mostly Cloudy,300,2012-11-24 07:00:00
8:30 AM,55.4,53.6,94,30.12,6.2,WNW,4.6,-,N/A,,Scattered Clouds,290,2012-11-24 07:30:00
9:00 AM,55.4,53.6,94,30.12,6.2,Variable,2.3,-,N/A,,Scattered Clouds,0,2012-11-24 08:00:00
9:30 AM,57.2,53.6,88,30.15,6.2,WNW,2.3,-,N/A,,Scattered Clouds,300,2012-11-24 08:30:00
10:00 AM,57.2,55.4,94,30.15,6.2,WNW,1.2,-,N/A,,Partly Cloudy,300,2012-11-24 09:00:00
10:30 AM,59.0,57.2,94,30.15,6.2,WNW,1.2,-,N/A,,Partly Cloudy,300,2012-11-24 09:30:00
11:00 AM,60.8,57.2,88,30.15,6.2,WNW,1.2,-,N/A,,Partly Cloudy,300,2012-11-24 10:00:00
11:30 AM,62.6,55.4,77,30.15,6.2,Calm,Calm,-,N/A,,Partly Cloudy,0,2012-11-24 10:30:00
12:00 PM,62.6,55.4,77,30.15,6.2,ESE,3.5,-,N/A,,Partly Cloudy,110,2012-11-24 11:00:00
12:30 PM,62.6,55.4,77,30.15,6.2,ESE,3.5,-,N/A,,Partly Cloudy,110,2012-11-24 11:30:00
1:00 PM,64,54,63,30.15,7,ESE,3.5,,,,Scattered Clouds,110,2012-11-24 12:00:00
1:00 PM,62.6,57.2,82,30.12,6.2,ESE,3.5,-,N/A,,Partly Cloudy,110,2012-11-24 12:00:00
1:30 PM,62.6,57.2,82,30.12,6.2,SE,3.5,-,N/A,,Partly Cloudy,130,2012-11-24 12:30:00
2:00 PM,62.6,57.2,82,30.12,6.2,ESE,4.6,-,N/A,,Partly Cloudy,110,2012-11-24 13:00:00
2:30 PM,62.6,55.4,77,30.12,6.2,ESE,3.5,-,N/A,,Partly Cloudy,120,2012-11-24 13:30:00
3:00 PM,62.6,57.2,82,30.09,6.2,SE,3.5,-,N/A,,Partly Cloudy,130,2012-11-24 14:00:00
3:30 PM,62.6,57.2,82,30.09,6.2,Variable,2.3,-,N/A,,Partly Cloudy,0,2012-11-24 14:30:00
4:00 PM,62.6,57.2,82,30.09,6.2,ESE,4.6,-,N/A,,Partly Cloudy,120,2012-11-24 15:00:00
4:30 PM,62.6,57.2,82,30.09,6.2,Variable,2.3,-,N/A,,Partly Cloudy,0,2012-11-24 15:30:00
5:00 PM,62.6,57.2,82,30.09,6.2,Variable,1.2,-,N/A,,Partly Cloudy,0,2012-11-24 16:00:00
5:30 PM,62.6,55.4,77,30.09,-9999.0,SSE,2.3,-,N/A,,Clear,160,2012-11-24 16:30:00
6:00 PM,60.8,57.2,88,30.09,-9999.0,East,1.2,-,N/A,,Clear,100,2012-11-24 17:00:00
6:30 PM,60.8,55.4,82,30.09,-9999.0,Calm,Calm,-,N/A,,Clear,0,2012-11-24 17:30:00
7:00 PM,62,55,71,30.12,9,ESE,1.2,,,,Partly Cloudy,120,2012-11-24 18:00:00
7:00 PM,60.8,55.4,82,30.09,-9999.0,ESE,1.2,-,N/A,,Clear,120,2012-11-24 18:00:00
7:30 PM,59.0,55.4,88,30.12,-9999.0,Calm,Calm,-,N/A,,Clear,0,2012-11-24 18:30:00
8:00 PM,59.0,55.4,88,30.12,-9999.0,Calm,Calm,-,N/A,,Clear,0,2012-11-24 19:00:00
8:30 PM,59.0,55.4,88,30.12,-9999.0,Calm,Calm,-,N/A,,Clear,0,2012-11-24 19:30:00
9:00 PM,57.2,55.4,94,30.12,-9999.0,Calm,Calm,-,N/A,,Clear,0,2012-11-24 20:00:00
9:30 PM,55.4,53.6,94,30.12,-9999.0,WNW,1.2,-,N/A,,Clear,290,2012-11-24 20:30:00
10:00 PM,57.2,55.4,94,30.12,-9999.0,West,3.5,-,N/A,,Clear,280,2012-11-24 21:00:00
10:30 PM,55.4,53.6,94,30.12,-9999.0,WNW,1.2,-,N/A,,Clear,300,2012-11-24 21:30:00
11:00 PM,55.4,55.4,100,30.12,-9999.0,WNW,2.3,-,N/A,,Clear,300,2012-11-24 22:00:00
11:30 PM,55.4,53.6,94,30.12,-9999.0,NW,3.5,-,N/A,,Clear,310,2012-11-24 22:30:00